AMAZONAS 5

Last updated on Sun Jun 21 2026 00:03:07 GMT+0000 (Coordinated Universal Time)

1 42934U 17053A 26171.12497531 -.00000288 00000+0 00000+0 0 9994 2 42934 0.0322 325.1798 0001971 73.4746 213.6749 1.00272263 32072
UTC large
Height (km)
Speed (km/s)
/
Latitude / Longitude
Inclination (degrees)
Orbital Period (minutes)
Azimuth
Elevation
Range (km)
Doppler Factor

Next 0 passes for location: London (51.5072 / 0.1276)

Sorry there are no passes over London.
AMAZONAS 5